DECAYED

CZ-6A DEB, 61093 (Decayed)

Orbit data source: Space-Track

CZ-6A DEB, 61093 was space debris in LEO originally from a launch on Tue, 06 Aug 2024 UTC launched from the Taiyaun Space Center, China (TSC). Debris objects in space refer to the collection of defunct objects orbiting the Earth. Examples of debris include non-operational satellites, rocket bodies, and fragments generated from explosions, collisions, or faulty payload assembly.

Not visible in the next 10 days
Identifier
61093, 2024-140NK
Orbit
Decayed
Country
Flag of CNCN / PRC
Related business
Manufacturer
SAST
Mission
Decayed spacecraft
Bus & Motor
Unknown
Mass
Unknown
Launch date (UTC)
2024-08-06 (2 years ago)
Launch vehicle
Unknown
Launch site
Taiyaun Space Center, China (TSC)
Object type
Payload
Rocket body
Debris
Shape & HBR
Unknown shape, 0.1 m
Radar Cross Section
Medium (>0.1 m² and <1 m²)

Expand to show TLE details & history
Last TLE update: 1 year ago

TLE from 1 year ago
0 CZ-6A DEB
1 61093U 24140NK  25123.99234161  .07380877  14972+0  22316-1 0  9995
2 61093  88.9173 316.7253 0016280 254.3920 105.5572 15.99718921 36855
Epoch: 2025-05-03T23:48Z
TLE epoch observation values (Epoch: 2025-05-03T23:48:58.315Z)
Latitude
-0°
Longitude
97.35567°
Altitude
281.426 km
Speed
7.737 km/s
True Right ascension
21h 06m 54s
True Declination
0° 00' 00"
Sunlit
Object was in daylight at epoch
Visualization orbit readout
Latitude
Unknown
Longitude
Unknown
Altitude
Unknown
Speed
Unknown
Apparent Right ascension
Unknown
Apparent Declination
Unknown
Sunlit
N/A
Visualization observer readout
Local Sidereal Time
10:19:00
Azimuth
Unknown
Elevation
Unknown
Doppler factor
Unknown
Orbital elements
Apogee altitude
282.723 km
Perigee altitude
261.071 km
Semi-major axis
6,650.034 km
Eccentricity
0.00163
Inclination
88.9173°
RAAN
316.7253°
Arg. of periapsis
254.392°
True anomaly
105.73682°
Mean anomaly
105.5572°
Eccentric anomaly
105.64702°
Mean motion
4.00228 °/min
Orbital period
89.95 mins
BSTAR
0.022316
Loading maneuver chart data...
Computing Atmospheric mass density...
Loading historical data...
Loading historical data...
Loading historical data...
Loading historical data...
Loading historical data...
Loading historical data...
Loading historical data...

Documentation

Showing up to 5 results
|